Regional Weather Roundup
Issued by NWS

Home | Current Version | Previous Version | Graphics & Text | Print | Product List | Glossary On
Versions: 1 2 3 4 5 6 7 8 9 10 11 12 13 14 15 16 17 18 19 20 21 22 23 24 25 26 27 28
000
ASUS45 KTFX 262210
RWRMT
MONTANA REGIONAL WEATHER ROUNDUP
NATIONAL WEATHER SERVICE GREAT FALLS MT
400 PM MDT WED APR 26 2017

NOTE: "FAIR" INDICATES FEW OR NO CLOUDS BELOW 12000 FEET WITH NO
SIGNIFICANT WEATHER AND/OR OBSTRUCTIONS TO VISIBILITY.

MTZ001>007-043-262300-
WEST OF THE DIVIDE

CITY           SKY/WX    TMP DP  RH WIND       PRES   REMARKS
KALISPELL      CLOUDY    47  42  83 S8        29.64F
MISSOULA       CLOUDY    52  37  56 CALM      29.67F
BUTTE          LGT RAIN  39  31  72 W9        29.69R
MULLAN PASS    FOG       32  32 100 VRB3      29.65F VSB 3/4
ANACONDA         N/A     48  21  34 W16       29.64F
DEER LODGE       N/A     45  36  70 NE5       29.67F
EUREKA           N/A     46  39  76 SE9       29.62F
HAMILTON         N/A     54  27  35 CALM      29.65F
LIBBY            N/A     50  41  71 NW7       29.63F
PLAINS           N/A     54  35  48 SW10      29.69F
$$

MTZ008-052>055-262300-
SOUTHWEST MONTANA

CITY           SKY/WX    TMP DP  RH WIND       PRES   REMARKS
BOZEMAN        CLOUDY    49  38  65 N13       29.63R
DILLON         CLOUDY    45  34  65 S22G32    29.65F
W YELLOWSTONE  CLOUDY    36  32  87 SW23G31   29.71S WCI  24
ENNIS          PTSUNNY   45  34  65 S17       29.71F
THREE FORKS      N/A     55  55 100 W8        29.65F
TWIN BRIDGES     N/A     51  27  39 S14       29.68F
$$

MTZ009-010-012-014-046-048-049-054-262300-
EAST SLOPES AND CENTRAL MONTANA

CITY           SKY/WX    TMP DP  RH WIND       PRES   REMARKS
CUT BANK       PTSUNNY   48  31  51 CALM      29.60F
GREAT FALLS    LGT RAIN  52  37  56 W6        29.60F
MALMSTROM AFB  PTSUNNY   51  36  56 E6        29.60F
HELENA         CLOUDY    51  38  60 W16G24    29.63F
AUGUSTA        LGT RAIN  43  36  76 SE3       29.60R
BOWMANS CRNR   PTSUNNY   50  35  56 N10       29.57S
CHOTEAU          N/A     52  32  46 W3        29.60F
FAIRFIELD      PTSUNNY   49  37  61 SE7       29.58F
POWER          PTSUNNY   49  35  58 CALM      29.59F
RAYNESFORD     PTSUNNY   50  36  59 E5        29.59F
ULM            LGT RAIN  49  40  71 NE12      29.59S
$$

MTZ011-013-016-021-045-047-050-051-262300-
NORTH CENTRAL MONTANA

CITY           SKY/WX    TMP DP  RH WIND       PRES   REMARKS
HAVRE          CLOUDY    54  35  48 W5        29.62F
LEWISTOWN      MOSUNNY   45  39  79 SE12      29.63F
N BAR RANCH    LGT RAIN  41  37  87 E6G12     29.67
CHINOOK          N/A     54  34  47 SE8G16    29.64F
DENTON         PTSUNNY   45  38  76 E14G26    29.61F
FORT BENTON      N/A     54  37  54 MISG      29.62F
GEYSER         SHOWER    42  39  91 E15       29.62F
GRASS RANGE    LGT RAIN  44  39  83 S15       29.62S
JUDITH GAP     PTSUNNY   44  35  71 E6        29.62F
STANFORD       LGT RAIN  46  41  83 S8        29.62F
WINIFRED       LGT RAIN  47  40  77 E14       29.63F
$$

MTZ017>020-022>027-061-062-262300-
NORTHEAST MONTANA

CITY           SKY/WX    TMP DP  RH WIND       PRES   REMARKS
GLASGOW        SUNNY     49  26  41 S10G23    29.73F
JORDAN           N/A     48  30  49 SE10      29.71F
SIDNEY         SUNNY     50  24  36 SE8       29.77F
WOLF POINT     SUNNY     53  24  32 SE8       29.75F
MALTA          PTSUNNY   52  30  43 S9        29.69F
PLENTYWOOD       N/A     46  21  36 E8G18     29.79F
POPLAR           N/A     48  23  37 SE7       29.77F
$$

MTZ028>42-056>058-262300-
SOUTHCENTRAL AND SOUTHEAST MONTANA

CITY           SKY/WX    TMP DP  RH WIND       PRES   REMARKS
BAKER          MOSUNNY   43  27  53 VRB5      29.76F
BILLINGS       MOSUNNY   51  39  63 E10       29.65F
LIVINGSTON     SUNNY     53  34  48 SW9       29.60F
MILES CITY     PTSUNNY   45  30  55 SE7       29.73F
BIG TIMBER     MOSUNNY   50  34  53 W6        29.64F
EKALAKA          N/A     44  27  51 N3        29.74F
LAUREL           N/A     50  36  58 NE3       29.67R
ROUNDUP          N/A     50  33  51 E9        29.60F
$$

REGIONAL REPORTS...DAKOTAS

CITY           SKY/WX    TMP DP  RH WIND       PRES   REMARKS
WILLISTON      SUNNY     52  22  30 NE10      29.79F
MINOT          SUNNY     50  23  34 NE16G23   29.78F
DICKINSON      SUNNY     47  22  37 NE10      29.73F
BEACH            N/A     46  23  39 CALM      29.78F
TIOGA            N/A     46  16  29 VRB7G17   29.81F
WATFORD CITY     N/A     48  19  32 NE10G18   29.77F
BISMARCK       PTSUNNY   46  28  49 N13G22    29.76F
GRAND FORKS    HVY SNOW  31  29  92 N14       29.78F VSB 1/4 WCI  21
FARGO          LGT SNOW  30  27  88 N20       29.72F VSB 3/4 WCI  17
BUFFALO SD       N/A     47  27  45 VRB3      29.68F
RAPID CITY     CLOUDY    38  28  67 N9        29.75F WCI  31
$$

REGIONAL REPORTS...WYOMING/IDAHO/WASHINGTON

CITY           SKY/WX    TMP DP  RH WIND       PRES   REMARKS
GILLETTE       SUNNY     44  36  73 N10       29.70F
SHERIDAN       CLOUDY    33  28  81 S7        29.71F WCI  27
BUFFALO WY     MOSUNNY   40  30  67 N5        29.68
CODY           MOSUNNY   54  30  40 NW12G25   29.63F
YELLOWSTONE LA   N/A     35  29  78 VRB3      29.73F
IDAHO FALLS    CLOUDY    44  40  85 S21       29.73S
SALMON         CLOUDY    43  37  81 N12       29.70F
BOISE          CLOUDY    49  42  77 NE6       29.77F
SPOKANE        CLOUDY    54  30  40 W21       29.66F
$$

REGIONAL REPORTS...ALBERTA

CITY           SKY/WX    TMP DP  RH WIND       PRES   REMARKS
EDMONTON       CLOUDY    36  28  75 SE8       29.74F WCI  29
CALGARY        CLOUDY    37  30  75 SE9       29.64S WCI  31
LETHBRIDGE     PTSUNNY   46  37  71 NE10      29.61F
MEDICINE HAT   CLOUDY    43  39  87 NE10      29.66F
CARDSTON         N/A     50  32  50 NE5         N/A
MILK RIVER       N/A     48  37  66 E7          N/A
$$

REGIONAL REPORTS...SASKATCHEWAN

CITY           SKY/WX    TMP DP  RH WIND       PRES   REMARKS
SWIFT CURRENT  CLOUDY    45  28  53 SE16G22   29.70F
REGINA         MOSUNNY   46  19  34 E9G22     29.83F
SASKATOON      PTSUNNY   45  19  36 E18G24    29.87F
VAL MARIE        N/A     48  27  43 S13G21      N/A
ASSINIBOIA       N/A     36  32  87 E10         N/A  WCI  28
$$




USA.gov is the U.S. government's official web portal to all federal, state and local government web resources and services.